| time (UTC) | temp F | wind direction | speed MPH | gust MPH | rain 1hr in | rain 24hr in | rain mn in | humidity % | barometer mb |
| 20260503200022 | 63 | 143 | 10.0 | 20.0 | 0.01 | 0.03 | 0.03 | 54 | 1007.8 |
| 20260503194521 | 64 | 171 | 7.0 | 17.0 | 0.01 | 0.03 | 0.03 | 55 | 1007.9 |
| 20260503193101 | 63 | 175 | 9.0 | 18.0 | 0.01 | 0.03 | 0.03 | 57 | 1008.4 |
| 20260503191556 | 63 | 177 | 8.0 | 16.0 | 0.01 | 0.03 | 0.03 | 58 | 1008.8 |
| 20260503190042 | 62 | 224 | 6.0 | 17.0 | 0.00 | 0.02 | 0.02 | 60 | 1008.8 |
| 20260503184537 | 61 | 200 | 6.0 | 15.0 | 0.00 | 0.02 | 0.02 | 62 | 1009.2 |
| 20260503183013 | 59 | 150 | 5.0 | 11.0 | 0.00 | 0.02 | 0.02 | 67 | 1009.8 |
| 20260503181507 | 57 | 128 | 2.0 | 7.0 | 0.00 | 0.02 | 0.02 | 69 | 1010.4 |
| 20260503180047 | 54 | 170 | 3.0 | 9.0 | 0.00 | 0.02 | 0.02 | 74 | 1011.1 |
| 20260503174601 | 52 | 188 | 3.0 | 11.0 | 0.01 | 0.02 | 0.02 | 77 | 1011.5 |
| 20260503173025 | 52 | 186 | 2.0 | 4.0 | 0.01 | 0.02 | 0.02 | 82 | 1012.2 |
| 20260503171523 | 52 | 129 | 1.0 | 5.0 | 0.02 | 0.02 | 0.02 | 81 | 1011.9 |
| 20260503081550 | 37 | 164 | 0.0 | 0.0 | 0.00 | 0.00 | 0.00 | 86 | 1014.0 |
| 20260503071511 | 39 | 164 | 0.0 | 0.0 | 0.00 | 0.00 | 0.00 | 82 | 1014.2 |
| 20260503054514 | 39 | 164 | 0.0 | 0.0 | 0.00 | 0.00 | 0.00 | 83 | 1015.0 |
| 20260503053047 | 40 | 164 | 0.0 | 1.0 | 0.00 | 0.00 | 0.00 | 82 | 1015.0 |
| 20260503051546 | 40 | 163 | 0.0 | 1.0 | 0.00 | 0.00 | 0.00 | 83 | 1015.2 |
| 20260503050043 | 40 | 162 | 0.0 | 1.0 | 0.00 | 0.00 | 0.00 | 83 | 1015.2 |
| 20260503044547 | 40 | 146 | 0.0 | 0.0 | 0.00 | 0.00 | 0.00 | 83 | 1015.2 |
| 20260503043042 | 40 | 145 | 0.0 | 0.0 | 0.00 | 0.00 | 0.00 | 83 | 1015.2 |
| 20260503041540 | 40 | 145 | 0.0 | 0.0 | 0.00 | 0.00 | 0.00 | 82 | 1015.2 |
| 20260503040039 | 41 | 145 | 0.0 | 0.0 | 0.00 | 0.00 | 0.00 | 82 | 1015.3 |
| 20260503034552 | 41 | 145 | 0.0 | 1.0 | 0.00 | 0.00 | 0.00 | 82 | 1015.2 |
| 20260503033027 | 41 | 150 | 0.0 | 0.0 | 0.00 | 0.00 | 0.00 | 82 | 1015.2 |
| 20260503031521 | 40 | 148 | 0.0 | 0.0 | 0.00 | 0.00 | 0.00 | 85 | 1015.4 |
| 20260503030002 | 40 | 270 | 0.0 | 0.0 | 0.00 | 0.00 | 0.00 | 83 | 1015.4 |
| 20260503024501 | 40 | 270 | 0.0 | 0.0 | 0.00 | 0.00 | 0.00 | 83 | 1015.4 |
| 20260503023050 | 41 | 270 | 0.0 | 0.0 | 0.00 | 0.00 | 0.00 | 82 | 1015.4 |
| 20260503021549 | 41 | 270 | 0.0 | 0.0 | 0.00 | 0.00 | 0.00 | 80 | 1015.3 |
| 20260503020049 | 42 | 270 | 0.0 | 0.0 | 0.00 | 0.00 | 0.00 | 79 | 1015.3 |
| 20260503014602 | 43 | 270 | 0.0 | 0.0 | 0.00 | 0.00 | 0.00 | 78 | 1015.2 |
| 20260503013047 | 45 | 270 | 0.0 | 0.0 | 0.00 | 0.00 | 0.00 | 79 | 1015.1 |
| 20260503011548 | 46 | 270 | 0.0 | 0.0 | 0.00 | 0.00 | 0.00 | 78 | 1015.1 |
| 20260503010046 | 47 | 269 | 0.0 | 0.0 | 0.00 | 0.00 | 0.00 | 75 | 1015.1 |
| 20260503004545 | 48 | 270 | 0.0 | 0.0 | 0.00 | 0.00 | 0.00 | 67 | 1015.0 |
| 20260503003041 | 49 | 270 | 0.0 | 0.0 | 0.00 | 0.00 | 0.00 | 63 | 1015.1 |
| 20260503001547 | 51 | 270 | 0.0 | 0.0 | 0.00 | 0.00 | 0.00 | 60 | 1015.1 |
| 20260503000008 | 53 | 270 | 0.0 | 0.0 | 0.00 | 0.00 | 0.00 | 59 | 1015.1 |
| 20260502234507 | 52 | 270 | 0.0 | 0.0 | 0.00 | 0.00 | 0.00 | 57 | 1015.1 |
| 20260502233106 | 54 | 270 | 0.0 | 2.0 | 0.00 | 0.00 | 0.00 | 54 | 1015.3 |
| 20260502231555 | 55 | 306 | 0.0 | 3.0 | 0.00 | 0.00 | 0.00 | 52 | 1015.3 |
| 20260502230053 | 56 | 289 | 1.0 | 7.0 | 0.00 | 0.00 | 0.00 | 51 | 1015.4 |
| 20260502224550 | 55 | 304 | 5.0 | 10.0 | 0.00 | 0.00 | 0.00 | 53 | 1015.4 |
| 20260502223050 | 54 | 203 | 0.0 | 6.0 | 0.00 | 0.00 | 0.00 | 50 | 1015.4 |
| 20260502221549 | 54 | 304 | 4.0 | 9.0 | 0.00 | 0.00 | 0.00 | 50 | 1015.4 |
| 20260502220049 | 55 | 290 | 6.0 | 13.0 | 0.00 | 0.00 | 0.00 | 47 | 1015.4 |
| 20260502214558 | 55 | 304 | 4.0 | 11.0 | 0.00 | 0.00 | 0.00 | 47 | 1015.4 |
| 20260502213047 | 54 | 297 | 5.0 | 11.0 | 0.00 | 0.00 | 0.00 | 48 | 1015.6 |
| 20260502211530 | 54 | 308 | 4.0 | 8.0 | 0.00 | 0.00 | 0.00 | 50 | 1015.5 |
| 20260502210028 | 54 | 277 | 2.0 | 7.0 | 0.00 | 0.00 | 0.00 | 46 | 1015.6 |
| 20260502204513 | 54 | 328 | 3.0 | 10.0 | 0.00 | 0.00 | 0.00 | 45 | 1015.7 |
| 20260502203007 | 55 | 298 | 6.0 | 14.0 | 0.00 | 0.00 | 0.00 | 47 | 1016.0 |
| 20260502201605 | 54 | 40 | 1.0 | 6.0 | 0.00 | 0.00 | 0.00 | 49 | 1016.2 |